Preview of NWS' New Version of Forecast
This preview is not operational and should not be used for support decisions.

Regional Weather Roundup (RWR)

Issued by National Weather Service (NWS)

                            
000
ASUS43 KMKX 212121
RWRWI 

WISCONSIN REGIONAL WEATHER ROUNDUP
NATIONAL WEATHER SERVICE MILWAUKEE/SULLIVAN WI
300 PM CST THU FEB 21 2019

NOTE: "FAIR" INDICATES FEW OR NO CLOUDS BELOW 12,000 FEET WITH NO
SIGNIFICANT WEATHER AND/OR OBSTRUCTIONS TO VISIBILITY.

WIZ001-002-006>008-014>016-023>028-212200-
NORTHWEST WISCONSIN
  
CITY           SKY/WX    TMP DP  RH WIND       PRES   REMARKS
SUPERIOR ARPT  CLOUDY    30  19  62 W7        30.13R WCI  23          
ASHLAND        CLOUDY    27  19  72 SW12      30.13R WCI  17          
HAYWARD        CLOUDY    22  17  81 W7        30.13R HAZE    WCI  13  
SIREN          CLOUDY    23  16  74 W9        30.16S WCI  13          
CUMBERLAND     CLOUDY    21  14  73 SW9       30.15R WCI  11          
RICE LAKE      CLOUDY    24  13  63 W7        30.17R WCI  16          
CHETEK         FAIR      24  14  66 SW6       30.16S WCI  16          
LADYSMITH      CLOUDY    25  16  68 SW7       30.15S WCI  17          
EAU CLAIRE     FAIR      21  12  68 W8        30.17S WCI  11          
MENOMONIE      FAIR      20   9  63 SW3       30.18S                  
NEW RICHMOND   FAIR      23  12  62 SW6       30.18R WCI  16          
OSCEOLA        FAIR      23  15  71 SW5       30.21R WCI  17          
$$
 
WIZ003>005-009-010-017-018-212200-
NORTH CENTRAL WISCONSIN
  
CITY           SKY/WX    TMP DP  RH WIND       PRES   REMARKS
MANITOWISH WTR NOT AVBL                                               
ARBOR VITAE    FLURRIES  24  19  80 W6        30.09R WCI  17          
WOODRUFF       FLURRIES  24  19  80 W6        30.09R WCI  17          
RHINELANDER    CLOUDY    25  15  66 W8        30.08R WCI  16          
EAGLE RIVER    CLOUDY    23  17  75 W7        30.06R WCI  15          
LAND O LAKES   FLURRIES  25  19  75 W6        30.08R WCI  18          
PHILLIPS       CLOUDY    23  15  74 W6        30.10R WCI  15          
TOMAHAWK       CLOUDY    24  15  68 W9        30.12R WCI  14          
MEDFORD        PTSUNNY   20  13  73 W9        30.12R WCI  10          
MERRILL        PTSUNNY   26  16  64 W10       30.12R WCI  16          
$$
 
WIZ029-030-035-036-043>047-212200-
CENTRAL WISCONSIN
  
CITY           SKY/WX    TMP DP  RH WIND       PRES   REMARKS
WAUSAU         FAIR      23  12  62 NW10      30.11R WCI  12          
MOSINEE        MOSUNNY   23  14  68 NW13G18   30.13R WCI  11          
MARSHFIELD     FAIR      23  13  65 W8        30.12R WCI  14          
STEVENS POINT  FAIR      22  11  63 W10G16    30.15R WCI  11          
WAUPACA        FAIR      30  14  51 W8        30.15S WCI  23          
WAUTOMA        FAIR      29  15  56 NW10      30.15R WCI  20          
WISC RAPIDS    FAIR      26  11  52 W9        30.15R WCI  17          
CAMP DOUGLAS   SUNNY     25  14  63 W9        30.16S WCI  15          
$$
 
WIZ011>013-019>022-031-037>040-048>050-212200-
NORTHEAST WISCONSIN
  
CITY           SKY/WX    TMP DP  RH WIND       PRES   REMARKS
ANTIGO         FAIR      25  15  65 NW10G17   30.09R WCI  14          
SHAWANO        FAIR      35  14  42 W7        30.12R WCI  29          
OCONTO         FAIR      31  15  52 W9        30.11R WCI  23          
STURGEON BAY   FAIR      30  17  58 SW10      30.09R WCI  21          
GREEN BAY      FAIR      30  15  53 W12       30.13R WCI  20          
MANITOWOC      FAIR      28  16  60 W13       30.15R WCI  17          
APPLETON       SUNNY     28  10  47 W15       30.12R WCI  17          
CLINTONVILLE   FAIR      29  13  50 W13       30.13R WCI  19          
OSHKOSH        FAIR      28  14  55 W8        30.14R WCI  20          
$$
 
WIZ032>034-041-042-053>061-212200-
SOUTHWEST WISCONSIN
  
CITY           SKY/WX    TMP DP  RH WIND       PRES   REMARKS
LA CROSSE      FAIR      26  15  63 NW9       30.19F WCI  17          
SPARTA         FAIR      26  14  59 W8        30.18F WCI  18          
VIROQUA        FAIR      26  14  60 W5        30.16R WCI  21          
BOSCOBEL       FAIR      27  11  51 W6        30.21R WCI  20          
PRAIRIE DU CHI FAIR      24  10  56 SW9       30.25R WCI  14          
PLATTEVILLE    FAIR      26  16  65 SW3       30.22R                  
$$

WIZ056-057-062-063-064-067-068-212200-
SOUTH CENTRAL WISCONSIN
  
CITY           SKY/WX    TMP DP  RH WIND       PRES   REMARKS
REEDSBURG      FAIR      27  12  54 W8        30.17R WCI  19          
BARABOO/DELLS  FAIR      28  11  51 W9        30.16R WCI  19          
LONE ROCK      FAIR      28  13  53 SW8       30.19R WCI  20          
MINERAL POINT  FAIR      28  16  59 SW8       30.19R WCI  20          
MADISON        FAIR      27  13  55 W7        30.18R WCI  19          
MIDDLETON      FAIR      30  15  53 SW9       30.19R WCI  21          
WATERTOWN      FAIR      27  15  59 SW10      30.17S WCI  17          
MONROE         FAIR      27  14  58 MISG      30.20R                  
JANESVILLE     MOSUNNY   30  18  59 W12G17    30.20R WCI  21          
$$
 
WIZ051-052-058>065-066-070>072-212200-
SOUTHEAST WISCONSIN
  
CITY           SKY/WX    TMP DP  RH WIND       PRES   REMARKS
MILWAUKEE      FAIR      32  14  47 W10       30.18R WCI  24          
WAUKESHA       SUNNY     27  12  54 W9        30.18R WCI  17          
MILWAUKEE/TIMM SUNNY     30  12  47 W14       30.18R WCI  20          
RACINE         FAIR      30  15  53 W14G21    30.20R WCI  19          
KENOSHA        FAIR      32  18  56 W13       30.19R WCI  22          
FOND DU LAC    FAIR      27  13  55 W8        30.15R WCI  19          
SHEBOYGAN      FAIR      26  14  60 W14       30.15R WCI  14          
WEST BEND      FAIR      28  14  54 W12       30.17R WCI  18          
JUNEAU         FAIR      25  13  61 SW10      30.18R WCI  15          
$$

LSZ147-162-212200-
LAKE SUPERIOR
  
STATION/POSITION TIME  TEMP    WIND        PRES    WAVE
                       AIR SEA DIR/SP/G            HT/PER
                 (UTC) (F)     (DEG/KT/KT) (MB)    (FT/S)
DEVILS ISLAND    2100   27     240/ 11/ 13 1020.6R
SAXON HARBOR     2030   29     200/  8/ 12 1019.3R
$$
 
LMZ867-665-643>646-212200-
LAKE MICHIGAN
  
STATION/POSITION TIME  TEMP    WIND        PRES    WAVE
                       AIR SEA DIR/SP/G            HT/PER
                 (UTC) (F)     (DEG/KT/KT) (MB)    (FT/S)
NORTHPORT PIER   2040   30     260/  2/  4 1018.6R
KEWAUNEE LAKESHO 2054   28     280/  9/ 15 1019.3R
SHEBOYGAN LAKESH 2100   27     260/ 13/ 14 1022.0R
PORT WASHINGTON  2040   31     280/  8/ 13 1022.7R
MILWAUKEE LAKESH 2100   30     260/  8/ 10   N/A
KENOSHA   LAKESH 2100   31     280/ 11/ 14 1022.4
$$

TC  - TEMPERATURE IN CELSIUS
VSB - VISIBILITY IN STATUTE MILES
WCI - WIND CHILL INDEX
HX  - HEAT INDEX